TimeCST,TemperatureF,Dew PointF,Humidity,Sea Level PressureIn,VisibilityMPH,Wind Direction,Wind SpeedMPH,Gust SpeedMPH,PrecipitationIn,Events,Conditions,WindDirDegrees,DateUTC
12:00 AM,75,74,98,30.00,12,Calm,Calm,,,Rain,Light Rain,,2013-08-29 06:00:00
3:00 AM,74,73,96,29.93,12,Calm,Calm,,,,Partly Cloudy,,2013-08-29 09:00:00
5:00 AM,73.4,73.4,100,29.92,6.2,Calm,Calm,-,N/A,,Mostly Cloudy,0,2013-08-29 11:00:00
6:00 AM,74,74,99,29.96,9,Calm,Calm,,,Rain,Light Rain Showers,,2013-08-29 12:00:00
6:00 AM,75.2,73.4,94,29.95,6.2,Calm,Calm,-,N/A,Rain,Light Rain Showers,0,2013-08-29 12:00:00
7:00 AM,75.2,75.2,100,29.98,6.2,Calm,Calm,-,N/A,Rain,Light Rain,0,2013-08-29 13:00:00
8:00 AM,75.2,75.2,100,29.99,6.2,Calm,Calm,-,N/A,Rain,Light Rain,0,2013-08-29 14:00:00
9:00 AM,76,75,95,30.00,9,NNW,3.5,,,Rain,Light Rain,330,2013-08-29 15:00:00
9:00 AM,77.0,75.2,94,29.99,6.2,NNW,3.5,-,N/A,Rain,Light Rain,330,2013-08-29 15:00:00
10:00 AM,77.0,75.2,94,29.98,6.2,NW,5.8,-,N/A,Rain,Light Rain,310,2013-08-29 16:00:00
10:24 AM,77.0,75.2,94,29.99,6.2,North,4.6,-,N/A,,Mostly Cloudy,350,2013-08-29 16:24:00
11:00 AM,80.6,77.0,89,29.98,5.0,NNW,5.8,-,N/A,,Mostly Cloudy,340,2013-08-29 17:00:00
11:12 AM,80.6,77.0,89,29.98,3.1,North,5.8,-,N/A,Rain,Light Rain,10,2013-08-29 17:12:00
11:28 AM,80.6,77.0,89,29.98,6.2,NNE,6.9,-,N/A,,Mostly Cloudy,20,2013-08-29 17:28:00
12:00 PM,82,77,80,29.97,14,North,4.6,,,Rain,Light Rain Showers,10,2013-08-29 18:00:00
12:00 PM,82.4,77.0,84,29.97,6.2,North,4.6,-,N/A,,Mostly Cloudy,10,2013-08-29 18:00:00
1:00 PM,82.4,77.0,84,29.95,6.2,NNE,3.5,-,N/A,,Mostly Cloudy,30,2013-08-29 19:00:00
2:00 PM,84.2,77.0,79,29.92,6.2,NE,4.6,-,N/A,,Mostly Cloudy,40,2013-08-29 20:00:00
3:00 PM,84,74,66,29.91,14,ENE,4.6,,,,,60,2013-08-29 21:00:00
3:00 PM,84.2,75.2,74,29.90,6.2,ENE,4.6,-,N/A,,Scattered Clouds,60,2013-08-29 21:00:00
4:00 PM,84.2,77.0,79,29.89,6.2,ENE,8.1,-,N/A,,Scattered Clouds,60,2013-08-29 22:00:00
5:00 PM,84.2,77.0,79,29.90,6.2,NE,5.8,-,N/A,,Scattered Clouds,50,2013-08-29 23:00:00
6:00 PM,82.4,77.0,84,29.91,6.2,NE,5.8,-,N/A,,Scattered Clouds,40,2013-08-30 00:00:00